Weather History for Jeddah, Saudi Arabia

Change the Weather History Date:

Tuesday, June 22, 2010

  Actual Average Record
Temperature  
Mean Temperature 106 °F -  
Max Temperature 125 °F 99 °F 107 °F (2012)
Min Temperature 87 °F 77 °F 75 °F (2002)
Cooling Degree Days 41    
Growing Degree Days 56 (Base 50)    
Moisture  
Dew Point 60 °F    
Average Humidity 30    
Maximum Humidity 55    
Minimum Humidity 4    
Precipitation  
Precipitation 0.00 in 0.00 in - ()
Sea Level Pressure  
Sea Level Pressure 29.56 in    
Wind  
Wind Speed 10 mph ()    
Max Wind Speed 21 mph    
Max Gust Speed -    
Visibility 4.5 miles    
Events      
Averages and records for this station are not official NWS values.
T = Trace of Precipitation, MM = Missing Value Source: Averaged Metar Reports

Daily Weather History Graph

Daily Weather History Graph

Search for Another Location

Airport:

Trip Planner

Search our weather history database for the weather conditions in past years. The results will help you decide how hot, cold, wet, or windy it might be!

Date:

Astronomy

Jun. 22, 2010 Rise Set
Actual Time 5:41 AM AST 7:08 PM AST
Civil Twilight 5:16 AM AST 7:33 PM AST
Nautical Twilight 4:46 AM AST 8:03 PM AST
Astronomical Twilight 4:15 AM AST 8:34 PM AST
Moon 3:34 PM AST (6/22) 2:01 AM AST (6/22)
Length of Visible Light 14h 17m
Length of Day
13h 27m
Waxing Gibbous, 83% of the Moon is Illuminated
Jun 22
Waxing Gibbous
Jun 26
Full
Jul 4
Last Quarter
Jul 11
New
Jul 18
First Quarter

Hourly Weather History & Observations

Time (AST) Temp. Heat Index Dew Point Humidity Pressure Visibility Wind Dir Wind Speed Gust Speed Precip Events Conditions
12:00 AM 95 °F - 66 °F 29% 29.59 in 6 mi North 13.8 mph - -   Scattered Clouds
12:00 AM 95.0 °F 98.5 °F 66.2 °F 39% 29.59 in - North 13.8 mph - N/A   Clear
1:00 AM 95.0 °F 96.0 °F 62.6 °F 34% 29.59 in 6.2 mi North 13.8 mph - N/A   Partly Cloudy
2:00 AM 93.2 °F 94.1 °F 62.6 °F 36% 29.56 in 6.2 mi North 11.5 mph - N/A   Partly Cloudy
3:00 AM 91 °F - 59 °F 24% 29.59 in 6 mi NNW 9.2 mph - -   Scattered Clouds
3:00 AM 91.4 °F 90.7 °F 59.0 °F 34% 29.59 in - NNW 9.2 mph - N/A   Clear
4:00 AM 89.6 °F 88.9 °F 59.0 °F 36% 29.59 in - NNW 6.9 mph - N/A   Clear
5:00 AM 87.8 °F 89.4 °F 64.4 °F 46% 29.56 in - NNW 11.5 mph - N/A   Clear
6:00 AM 88 °F - 64 °F 35% 29.58 in 6 mi North 9.2 mph - -   Scattered Clouds
6:00 AM 87.8 °F 89.4 °F 64.4 °F 46% 29.56 in - North 9.2 mph - N/A   Clear
7:00 AM 89.6 °F 93.4 °F 68.0 °F 49% 29.56 in - North 6.9 mph - N/A   Clear
8:00 AM 98.6 °F 99.4 °F 60.8 °F 29% 29.59 in - North 6.9 mph - N/A   Clear
9:00 AM 109.4 °F - 50.0 °F 14% 29.59 in 3.7 mi NE 13.8 mph - N/A   Unknown
10:00 AM 114.8 °F - 30.2 °F 6% 29.56 in 3.7 mi NNE 16.1 mph - N/A   Clear
11:00 AM 116.6 °F - 32.0 °F 6% 29.56 in 2.5 mi ENE 20.7 mph - N/A   Sand
12:00 PM 120 °F - 39 °F 4% 29.56 in 2 mi ENE 13.8 mph - -   Blowing Sand
12:00 PM 120.2 °F - 39.2 °F 7% 29.56 in 2.5 mi ENE 13.8 mph - N/A   Sand
1:00 PM 123.8 °F - 42.8 °F 7% 29.53 in 3.7 mi ESE 13.8 mph - N/A   Unknown
2:00 PM 111.2 °F 116.0 °F 64.4 °F 22% 29.56 in 3.7 mi SSW 13.8 mph - N/A   Unknown
3:00 PM 108 °F - 59 °F 13% 29.55 in 4 mi South 18.4 mph - -   Blowing Sand
3:00 PM 107.6 °F 108.2 °F 59.0 °F 20% 29.53 in 3.7 mi South 18.4 mph - N/A   Unknown
4:00 PM 105.8 °F 105.5 °F 57.2 °F 20% 29.53 in 3.7 mi South 15.0 mph - N/A   Unknown
5:00 PM 104.0 °F 103.4 °F 57.2 °F 21% 29.53 in 4.3 mi South 13.8 mph - N/A   Unknown
6:00 PM 99 °F - 68 °F 27% 29.54 in 5 mi SSW 9.2 mph - -   Haze
6:00 PM 98.6 °F 104.1 °F 68.0 °F 37% 29.53 in 5.0 mi SSW 9.2 mph - N/A   Clear
7:00 PM 96.8 °F 103.1 °F 69.8 °F 41% 29.53 in 5.0 mi SW 5.8 mph - N/A   Clear
8:00 PM 95.0 °F 101.3 °F 69.8 °F 44% 29.56 in 5.6 mi West 5.8 mph - N/A   Clear
9:00 PM 93 °F - 73 °F 44% 29.58 in 6 mi Calm Calm - -  
9:00 PM 93.2 °F 102.4 °F 73.4 °F 52% 29.56 in - Calm Calm - N/A   Clear
10:00 PM 91.4 °F 100.1 °F 73.4 °F 55% 29.59 in - Calm Calm - N/A   Clear
11:00 PM 91.4 °F 93.2 °F 64.4 °F 41% 29.59 in - NNW 9.2 mph - N/A   Clear